Regional Weather Roundup
Issued by NWS Goodland, KS

Home | Current Version | Previous Version | Graphics & Text | Print | Product List | Glossary On
Versions: 1 2 3 4 5 6 7 8 9 10 11 12 13 14 15 16 17 18 19 20 21 22 23 24 25 26 27 28 29 30 31 32 33 34 35 36 37 38 39 40 41 42 43 44 45 46 47 48 49 50
000
ASUS43 KGLD 241659
RWRGLD

GOODLAND FORECAST AREA HOURLY WEATHER ROUNDUP
NATIONAL WEATHER SERVICE GOODLAND KS
1100 AM MDT SAT SEP 24 2016

...OFFICIAL OBSERVATIONS...

CITY           SKY/WX    TMP DP  RH WIND       PRES   REMARKS
GOODLAND KS    SUNNY     64  41  42 NW7       30.02S
HILL CITY KS   CLOUDY    67  53  61 N8        29.97R
IMPERIAL NEB   SUNNY     66  38  35 NW9G16    30.00R
MCCOOK NEB     SUNNY     69  47  45 VRB6      29.98R
AKRON CO       SUNNY     63  33  32 SW7       30.03S
BURLINGTON CO  SUNNY     62  41  46 N5        30.04F
LIMON CO       SUNNY     62  28  27 S8        30.05F
$$

...UNOFFICIAL OBSERVATIONS...

CITY           SKY/WX    TMP DP  RH WIND       PRES   REMARKS
COLBY KS       MOSUNNY   70  46  43 NW7       30.02R
LENORA KS        N/A     66  32  28 MISG        N/A
NORTON KS      SUNNY     64  43  45 N9        29.96S
SHARON SPRINGS   N/A     63  47  57 N7          N/A
KIT CARSON CO    N/A     62  43  49 CALM        N/A
$$




USA.gov is the U.S. government's official web portal to all federal, state and local government web resources and services.